Tracking 18852 objects as of 24-Nov-2017
HD Live streaming from Space Station
objects crossing your sky now

BREEZE-M R/B

Track BREEZE-M R/B now!


NORAD ID: 36500
Int'l Code: 2010-010B
Perigee: 2,611.4 km
Apogee: 33,938.8 km
Inclination: 26.3 °
Period: 641.8 minutes
Semi major axis: 24646 km
RCS: 6.4189 m2 (large)
Launch date: March 20, 2010
Source: Commonwealth of Independent States (former USSR) (CIS)
Launch site: TYURATAM MISSILE AND SPACE COMPLEX (TTMTR)

Note: This is a ROCKET BODY
aabbcc
Your satellite tracking list
Your tracking list is empty




NASA's NSSDC Master Catalog

Two Line Element Set (TLE):
1 36500U 10010B   17327.80939594 -.00000057  00000-0  00000+0 0  9995
2 36500  26.3137 181.5290 6355447 354.0395 172.0717  2.24378271 62949
Source of the keplerian elements: AFSPC